This is the latest recevied weather packets stored in our database for station/object N0NB. If no packets are shown the sender has not sent any weather packets the latest 10 day(s).
| Time | Temp. | Humidity | Pressure | Rain* | Wind** | Luminosity | Snow |
|---|---|---|---|---|---|---|---|
| 1788240616 | 25° C | 72% | 1012.6 hPa | 0 mm | - | 0 W/m² | - |
| 1788240016 | 25° C | 73% | 1012.7 hPa | 0 mm | - | 0 W/m² | - |
| 1788239416 | 25° C | 74% | 1012.6 hPa | 0 mm | - | 0 W/m² | - |
| 1788238816 | 25° C | 74% | 1012.6 hPa | 0 mm | - | 0 W/m² | - |
| 1788238215 | 25° C | 76% | 1012.5 hPa | 0 mm | - | 0 W/m² | - |
| 1788237615 | 24.44° C | 79% | 1012.5 hPa | 0 mm | - | 0 W/m² | - |
| 1788237015 | 23.33° C | 83% | 1012.3 hPa | 0 mm | - | 0 W/m² | - |
| 1788236415 | 22.78° C | 88% | 1012.4 hPa | 0 mm | - | 0 W/m² | - |
| 1788235815 | 22.78° C | 90% | 1012.4 hPa | 0 mm | - | 0 W/m² | - |
| 1788235215 | 22.78° C | 90% | 1012.2 hPa | 0 mm | - | 0 W/m² | - |
| 1788234615 | 23.33° C | 90% | 1012.3 hPa | 0 mm | - | 0 W/m² | - |
| 1788234015 | 23.33° C | 89% | 1012.1 hPa | 0 mm | - | 0 W/m² | - |
| 1788233417 | 23.89° C | 88% | 1011.9 hPa | 0 mm | - | 0 W/m² | - |
| 1788232817 | 23.89° C | 87% | 1011.9 hPa | 0 mm | - | 0 W/m² | - |
| 1788232217 | 24.44° C | 87% | 1011.8 hPa | 0 mm | - | 0 W/m² | - |
| 1788231617 | 25° C | 86% | 1011.6 hPa | 0 mm | - | 0 W/m² | - |
| 1788231017 | 25° C | 86% | 1011.3 hPa | 0 mm | - | 0 W/m² | - |
| 1788230417 | 25° C | 85% | 1011.4 hPa | 0 mm | - | 0 W/m² | - |
| 1788229817 | 25.56° C | 84% | 1011.3 hPa | 0 mm | - | 0 W/m² | - |
| 1788229217 | 25.56° C | 84% | 1011.1 hPa | 0 mm | - | 0 W/m² | - |
| 1788228617 | 26.11° C | 83% | 1011 hPa | 0 mm | - | 0 W/m² | - |
| 1788228017 | 26.67° C | 83% | 1011 hPa | 0 mm | - | 0 W/m² | - |
| 1788227417 | 27.22° C | 82% | 1010.9 hPa | 0 mm | - | 0 W/m² | - |
| 1788226817 | 27.22° C | 81% | 1010.8 hPa | 0 mm | - | 0 W/m² | - |
| 1788226217 | 27.78° C | 79% | 1010.8 hPa | 0 mm | - | 0 W/m² | - |
* Rain latest hour (hover to see other rain measurements)
** Current wind speed in m/s (hover to see current wind gust speed)